Notices

What's New in latest Release from April 7th, 2021:

- Updated Glossary, including Speed of Maximum Gust, and Total Hourly Precipitation

- Updated national and regional climate services offices contacts and prices information

- Addition of station inventory lists for 1981-2010, 1971-2000, and 1961-1990 Normals.

If you haven't already, please take our survey and provide feedback about our website: https://eccc.sondage-survey.ca/f/LanguageSelection.aspx?s=442ca660-fcf1-47c0-95a9-59707d6fd709

Hourly Data Report for June 11, 2020

TRENTON A
ONTARIO
Current Station Operator: DND

44°07'00.000" N
77°32'00.000" W
86.30 m
6158875
71621
YTR

Download Data

Hourly Data (June 2020)
Hourly Data Report for June 11, 2020
TIME
LST
Temp Definition
°C
Dew Point Definition
°C
Rel Hum Definition
%
Precip. Amount Definition
mm

Wind Dir Definition
10's deg

Wind Spd Definition
km/h
Visibility Definition
km
Stn Press Definition
kPa
Hmdx Definition


Wind Chill Definition


Weather Definition


00:00 20.3 14.1 68   30 22 6.4 99.62     Rain Showers,Fog
01:00 19.2 14.4 74   7 11 11.3 99.42     Rain Showers
02:00 19.5 14.4 72   14 11 24.1 99.41     Cloudy
03:00 20.2 14.7 71   17 4 24.1 99.43     Cloudy
04:00 20.6 14.5 68   21 17 24.1 99.46     Mostly Cloudy
05:00 19.5 12.7 65   22 24 24.1 99.53     Mainly Clear
06:00 19.5 11.7 61   24 24 24.1 99.61     Mainly Clear
07:00 19.6 11.5 60   23 30 24.1 99.69     Mostly Cloudy
08:00 19.5 11.9 61   24 28 24.1 99.80     Cloudy
09:00 20.2 12.2 60   23 21 24.1 99.92     Mostly Cloudy
10:00 19.1 10.4 57   24 24 24.1 100.10     Mostly Cloudy
11:00 19.9 7.9 46   28 31 24.1 100.25     Mostly Cloudy
12:00 18.6 7.5 48   24 34 24.1 100.36     Mostly Cloudy
13:00 19.6 8.8 50   22 30 24.1 100.40     Mainly Clear
14:00 20.0 9.2 50   22 28 24.1 100.42     Mainly Clear
15:00 21.1 9.3 47   23 30 24.1 100.43     Mainly Clear
16:00 21.3 9.7 48   23 26 24.1 100.44     Mainly Clear
17:00 21.5 10.9 51   23 24 24.1 100.49     Mainly Clear
18:00 20.9 11.0 53   23 26 24.1 100.52     Mainly Clear
19:00 19.9 10.9 56   24 21 24.1 100.56     Mainly Clear
20:00 18.4 10.4 60   22 18 24.1 100.59     Mainly Clear
21:00 17.5 9.5 59   23 15 24.1 100.64     Mainly Clear
22:00 16.5 9.8 65   21 8 24.1 100.66     Clear
23:00 16.3 9.0 62   22 9 24.1 100.65     Clear

Notes on Data Quality.

Legend

  • E = Estimated
  • M = Missing
  • NA = Not Available*
  • [empty] = Indicates an unobserved value
Date modified: